W5GFI Weather Reports


Display with metric or nautical units.
time (UTC)temp
F
wind
direction
speed
MPH
gust
MPH
rain 1hr
in
rain 24hr
in
rain mn
in
humidity
%
barometer
mb
20260510131549 62 65 1.0 4.0 0.00 0.00 0.00 79 1016.4
20260510130019 62 23 1.0 4.0 0.00 0.00 0.00 79 1016.0
20260510124606 62 359 0.0 3.0 0.00 0.00 0.00 80 1015.9
20260510123029 62 35 0.0 6.0 0.00 0.00 0.00 81 1015.4
20260510121502 61 95 0.0 3.0 0.00 0.00 0.00 83 1014.8
20260510120047 60 4 2.0 6.0 0.00 0.00 0.00 84 1014.8
20260510114518 60 141 0.0 0.0 0.00 0.00 0.00 85 1014.1
20260510113054 59 141 0.0 1.0 0.00 0.00 0.00 84 1013.6
20260510111540 59 105 0.0 3.0 0.00 0.00 0.00 84 1013.2
20260510110012 59 120 0.0 2.0 0.00 0.00 0.00 84 1013.0
20260510104605 60 201 0.0 1.0 0.00 0.00 0.00 83 1013.1
20260510103039 60 218 0.0 0.0 0.00 0.00 0.00 82 1013.0
20260510101514 61 217 0.0 0.0 0.00 0.00 0.00 82 1012.9
20260510100055 61 218 0.0 1.0 0.00 0.00 0.00 81 1012.9
20260510094531 62 218 0.0 1.0 0.00 0.00 0.00 81 1013.1
20260510093017 62 218 0.0 1.0 0.00 0.00 0.00 80 1012.9
20260510091553 62 45 1.0 3.0 0.00 0.00 0.00 80 1013.3
20260510090036 62 166 1.0 4.0 0.00 0.00 0.00 80 1012.8
20260510084517 63 50 0.0 3.0 0.00 0.00 0.00 80 1012.4
20260510083100 63 21 1.0 3.0 0.00 0.00 0.00 79 1012.0
20260510081527 63 21 0.0 1.0 0.00 0.01 0.00 78 1011.5
20260510080100 64 44 0.0 3.0 0.00 0.01 0.00 77 1011.1
20260510074527 64 359 0.0 2.0 0.00 0.01 0.00 75 1011.4
20260510073010 65 258 0.0 2.0 0.00 0.01 0.00 74 1011.3
20260510071556 66 258 0.0 0.0 0.00 0.01 0.00 70 1011.0
20260510070027 66 258 0.0 0.0 0.00 0.01 0.00 69 1011.4
20260510064502 67 257 0.0 4.0 0.00 0.01 0.00 67 1011.4
20260510063039 65 144 2.0 11.0 0.00 0.01 0.00 70 1010.9
20260510061512 64 119 1.0 4.0 0.00 0.01 0.00 78 1011.4
20260510060054 64 100 0.0 2.0 0.00 0.01 0.00 80 1012.1
20260510054524 64 147 0.0 0.0 0.00 0.01 0.00 80 1012.4
20260510053056 64 147 0.0 2.0 0.00 0.01 0.00 80 1012.9
20260510051552 64 111 0.0 2.0 0.00 0.01 0.01 81 1012.9
20260510050020 64 149 0.0 0.0 0.00 0.01 0.01 80 1012.8
20260510044556 64 148 0.0 2.0 0.00 0.01 0.01 80 1012.7
20260510043025 64 96 0.0 0.0 0.00 0.01 0.01 80 1012.2
20260510041507 64 96 0.0 0.0 0.00 0.01 0.01 79 1012.2
20260510040046 65 96 0.0 0.0 0.00 0.01 0.01 78 1012.0
20260510034529 65 96 0.0 0.0 0.00 0.01 0.01 76 1012.0
20260510033016 66 96 0.0 0.0 0.00 0.01 0.01 75 1011.9
20260510031555 66 96 0.0 0.0 0.00 0.01 0.01 73 1011.5
20260510030023 67 96 0.0 0.0 0.00 0.01 0.01 71 1011.2
20260510024603 68 95 0.0 0.0 0.00 0.01 0.01 69 1010.9
20260510023033 69 95 0.0 0.0 0.00 0.01 0.01 66 1010.5
20260510021507 71 96 0.0 0.0 0.00 0.01 0.01 62 1010.3
20260510020051 72 96 0.0 0.0 0.00 0.01 0.01 60 1009.9
20260510014522 73 95 0.0 0.0 0.00 0.01 0.01 57 1009.5
20260510013107 75 96 0.0 0.0 0.00 0.01 0.01 54 1009.4
20260510011537 77 96 0.0 0.0 0.00 0.01 0.01 52 1009.1
20260510010017 79 96 0.0 0.0 0.00 0.01 0.01 49 1008.8
20260510004600 80 96 0.0 1.0 0.00 0.01 0.01 45 1008.7
20260510003032 82 96 0.0 2.0 0.00 0.01 0.01 42 1008.5
20260510001510 84 152 0.0 1.0 0.00 0.02 0.01 38 1008.5
20260510000047 85 164 0.0 3.0 0.00 0.02 0.01 36 1008.5
20260509234524 86 156 0.0 4.0 0.00 0.02 0.01 32 1008.6
20260509233056 87 174 0.0 3.0 0.00 0.02 0.01 32 1008.7
20260509231534 87 211 0.0 3.0 0.00 0.05 0.01 32 1008.9
20260509230015 87 172 1.0 5.0 0.00 0.05 0.01 31 1009.1
20260509224554 87 231 1.0 5.0 0.00 0.05 0.01 31 1009.0
20260509223025 87 134 2.0 7.0 0.00 0.05 0.01 32 1008.9
20260509221612 87 102 2.0 6.0 0.00 0.05 0.01 34 1009.0
20260509220037 87 162 1.0 5.0 0.00 0.05 0.01 32 1009.1
20260509214519 86 242 2.0 5.0 0.00 0.05 0.01 30 1009.2
20260509213004 86 336 0.0 4.0 0.00 0.05 0.01 29 1009.4
20260509211544 86 256 0.0 4.0 0.00 0.05 0.01 39 1009.6
20260509210025 85 247 1.0 4.0 0.00 0.05 0.01 32 1009.7
20260509204508 86 229 3.0 5.0 0.00 0.05 0.01 31 1009.9
20260509203049 85 185 2.0 5.0 0.00 0.05 0.01 34 1010.0
20260509201527 85 313 1.0 7.0 0.00 0.05 0.01 35 1010.3
20260509200001 85 168 3.0 7.0 0.00 0.05 0.01 35 1010.4
20260509194538 84 253 1.0 7.0 0.00 0.05 0.01 36 1010.3
20260509193019 84 230 3.0 7.0 0.00 0.05 0.01 38 1010.5
20260509191612 83 265 2.0 5.0 0.00 0.05 0.01 43 1010.2
20260509190041 82 270 3.0 8.0 0.00 0.05 0.01 47 1010.4
20260509184523 82 251 2.0 8.0 0.00 0.05 0.01 42 1010.8
20260509183047 82 278 1.0 7.0 0.00 0.05 0.01 47 1010.7
20260509181520 82 219 1.0 7.0 0.00 0.05 0.01 49 1011.0
20260509180004 81 249 2.0 6.0 0.00 0.05 0.01 53 1010.9
20260509174541 79 311 1.0 6.0 0.00 0.05 0.01 59 1011.0
20260509173015 78 256 4.0 6.0 0.00 0.05 0.01 60 1011.2
20260509171605 77 185 3.0 7.0 0.00 0.05 0.01 63 1011.2
20260509170027 76 305 3.0 8.0 0.00 0.05 0.01 67 1011.4
20260509164555 75 285 4.0 8.0 0.00 0.05 0.01 68 1011.6
20260509163046 73 202 3.0 7.0 0.00 0.05 0.01 71 1011.5
20260509161513 72 198 2.0 5.0 0.00 0.05 0.01 75 1011.3
20260509160050 71 225 2.0 5.0 0.00 0.05 0.01 77 1011.4
20260509154520 69 105 4.0 7.0 0.00 0.05 0.01 79 1011.4
20260509153054 68 212 1.0 5.0 0.00 0.05 0.01 83 1011.2
20260509151536 67 168 1.0 4.0 0.00 0.05 0.01 86 1011.3
20260509150003 65 161 2.0 8.0 0.00 0.05 0.01 87 1011.5
20260509144546 63 137 2.0 4.0 0.00 0.05 0.01 92 1011.3
20260509143022 61 131 1.0 3.0 0.00 0.05 0.01 96 1011.3
20260509141559 59 192 0.0 2.0 0.00 0.05 0.01 97 1011.4
20260509140035 58 126 0.0 2.0 0.00 0.05 0.01 96 1011.3
20260509134510 57 359 0.0 1.0 0.00 0.05 0.01 96 1011.3
20260509133057 56 359 0.0 2.0 0.00 0.05 0.01 96 1011.0